This is the latest recevied weather packets stored in our database for station/object DB0LS-15. If no packets are shown the sender has not sent any weather packets the latest 1 day(s).
| Time | Temp. | Humidity | Pressure | Rain* | Wind** | Luminosity | Snow |
|---|---|---|---|---|---|---|---|
| 1777975569 | 15° C | 96% | 991.1 hPa | 0 mm | 0.89 m/s, 333° | - | - |
| 1777974966 | 15° C | 96% | 991.1 hPa | 0.25 mm | 1.34 m/s, 311° | - | - |
| 1777974362 | 14.44° C | 96% | 991.2 hPa | 0.25 mm | 0.89 m/s, 47° | - | - |
| 1777973758 | 14.44° C | 96% | 991.1 hPa | 0.25 mm | 0.89 m/s, 86° | - | - |
| 1777973154 | 14.44° C | 97% | 991 hPa | 0.25 mm | 0.89 m/s, 86° | - | - |
| 1777971343 | 13.89° C | 97% | 991.1 hPa | 0 mm | 0.45 m/s, 48° | - | - |
| 1777970739 | 13.89° C | 97% | 990.8 hPa | 0 mm | 1.34 m/s, 37° | - | - |
| 1777970135 | 14.44° C | 97% | 991.1 hPa | 0.25 mm | 0.45 m/s, 29° | - | - |
| 1777969531 | 13.89° C | 97% | 991.1 hPa | 0.25 mm | 0.89 m/s, 21° | - | - |
| 1777968928 | 13.89° C | 96% | 991.3 hPa | 0.25 mm | 0.89 m/s, 16° | - | - |
| 1777968324 | 13.89° C | 96% | 991.2 hPa | 0.25 mm | 0.45 m/s, 27° | - | - |
| 1777967720 | 13.89° C | 96% | 991.3 hPa | 0.25 mm | 0.45 m/s, 320° | - | - |
| 1777967116 | 13.89° C | 96% | 991.3 hPa | 0.51 mm | 0.89 m/s, 299° | - | - |
| 1777966573 | 14.44° C | 95% | 991.4 hPa | 0.51 mm | 0 m/s | - | - |
| 1777965969 | 13.89° C | 95% | 991.6 hPa | 0.51 mm | 0.89 m/s, 284° | - | - |
| 1777965365 | 14.44° C | 95% | 991.7 hPa | 0.51 mm | 0.89 m/s, 237° | - | - |
| 1777964761 | 14.44° C | 94% | 991.7 hPa | 1.02 mm | 0.45 m/s, 243° | - | - |
| 1777964158 | 14.44° C | 94% | 991.6 hPa | 1.02 mm | 0 m/s | - | - |
| 1777963554 | 13.89° C | 93% | 991.5 hPa | 0.51 mm | 0 m/s | - | - |
| 1777962950 | 13.89° C | 93% | 991.7 hPa | 0.25 mm | 0.45 m/s, 315° | - | - |
| 1777962346 | 13.89° C | 92% | 991.6 hPa | 0.25 mm | 0.45 m/s, 315° | - | - |
| 1777961743 | 13.89° C | 92% | 991.6 hPa | 0.25 mm | 0.45 m/s, 280° | - | - |
| 1777961139 | 13.89° C | 91% | 991.6 hPa | 0 mm | 0.89 m/s, 223° | - | - |
| 1777960535 | 13.89° C | 90% | 991.5 hPa | 0 mm | 0.45 m/s, 225° | - | - |
| 1777959931 | 13.89° C | 89% | 991.4 hPa | 0 mm | 0.45 m/s, 325° | - | - |
* Rain latest hour (hover to see other rain measurements)
** Current wind speed in m/s (hover to see current wind gust speed)